Regional Weather Roundup
Issued by NWS

Home | Current Version | Previous Version | Text Only | Print | Product List | Glossary On
Versions: 1 2 3 4 5 6 7 8 9 10 11 12 13 14 15 16 17 18 19 20 21 22 23 24 25 26 27 28 29 30 31 32 33 34 35 36 37 38 39 40 41 42 43 44 45 46 47 48 49 50
000
ASUS44 KEWX 041810
RWRTX
SOUTH TEXAS REGIONAL WEATHER ROUNDUP
NATIONAL WEATHER SERVICE AUSTIN/SAN ANTONIO TX
1200 PM CST WED MAR 04 2015

NOTE: "FAIR" INDICATED FEW OR NO CLOUDS BELOW 12,000 FEET WITH NO
SIGNIFICANT WEATHER AND/OR OBSTRUCTIONS TO VISIBILITY.

* - THESE STATIONS ARE NOT NWS OR FAA STATIONS...AND ARE NOT SUBJECT
    TO NWS AND FAA QUALITY CONTROL.

TXZ171-172-183>190-041900-
TEXAS HILL COUNTRY AND EDWARDS PLATEAU

CITY           SKY/WX    TMP DP  RH WIND       PRES   REMARKS
JUNCTION       CLOUDY    57  56  96 N8        29.89S FOG
6HR MIN TEMP:  52; 6HR MAX TEMP:  57; 6HR PCP: TRACE;

*LLANO         CLOUDY    64  64 100 NE3       29.90F
BURNET         CLOUDY    63  62  97 CALM      29.89S FOG
6HR MIN TEMP:  58; 6HR MAX TEMP:  63; 6HR PCP:  0.01;

*HORSESHOE BAY FOG      N/A N/A N/A CALM      29.87S VSB 1/2
                                      6HR PCP:  0.02;

*KERRVILLE     DRIZZLE   63  61  95 SW7       29.88R
6HR MIN TEMP:  56; 6HR MAX TEMP:  63; 6HR PCP:  0.03;

*FREDERICKSBRG CLOUDY    62  62  98 CALM      29.87S FOG
6HR MIN TEMP:  56; 6HR MAX TEMP:  62; 6HR PCP:  0.01;

*ROCKSPRINGS   FOG       59  59 100 N3        29.90S VSB<1/4
*BOERNE STAGE  CLOUDY    63  63 100 S6        29.86F
*CASTROVILLE   CLOUDY    66  66  99 SW7       29.86S FOG
HONDO          LGT RAIN  65  63  93 SW9       29.86R FOG
6HR MIN TEMP:  61; 6HR MAX TEMP:  66; 6HR PCP: TRACE;

*UVALDE        CLOUDY    62  62  99 SW6       29.86S FOG
6HR MIN TEMP:  58; 6HR MAX TEMP:  63;

DEL RIO        CLOUDY    62  54  74 NW7       29.85F
6HR MIN TEMP:  56; 6HR MAX TEMP:  62;

LAUGHLIN AFB   CLOUDY    61  58  88 NW8       29.85R
6HR MIN TEMP:  55; 6HR MAX TEMP:  62;

CARRIZO SPRGS  CLOUDY    63  61  94 NW5       29.84S
$$

TXZ173-191>194-202-209-217>225-228-041900-
CENTRAL AND SOUTH CENTRAL TEXAS

CITY           SKY/WX    TMP DP  RH WIND       PRES   REMARKS
GEORGETOWN     CLOUDY    64  61  88 CALM      29.86F FOG
AUSTIN/BERGSTM LGT RAIN  67  66  97 SW5       29.84S FOG
6HR MIN TEMP:  57; 6HR MAX TEMP:  67; 6HR PCP:  0.01;

AUSTIN/MABRY   CLOUDY    65  64  97 CALM      29.86S FOG
6HR MIN TEMP:  61; 6HR MAX TEMP:  65; 6HR PCP:  0.10;

*AUSTIN/EXEC   LGT RAIN  66  66 100 SW7       29.86S VSB 3/4
*LAGO VISTA    DRIZZLE   65  64  95 CALM      29.88S
6HR MIN TEMP:  63; 6HR MAX TEMP:  66; 6HR PCP:  0.05;

SAN MARCOS     CLOUDY    66  64  94 S9        29.85F FOG
NEW BRAUNFELS  CLOUDY    69  66  90 S9        29.83F
6HR MIN TEMP:  60; 6HR MAX TEMP:  69; 6HR PCP:  0.03;

RANDOLPH AFB   CLOUDY    66  66 100 S7        29.84S FOG
PT SAN ANTONIO CLOUDY    67  67  99 S9        29.81F
6HR MIN TEMP:  62; 6HR MAX TEMP:  67;

SAN ANTONIO    DRIZZLE   68  65  90 S8        29.84F FOG
6HR MIN TEMP:  64; 6HR MAX TEMP:  68; 6HR PCP: TRACE;

STINSON FIELD  CLOUDY    67  66  97 S3        29.82F FOG
6HR MIN TEMP:  62; 6HR MAX TEMP:  67;

*PLEASANTON    CLOUDY    69  66  90 SE7       29.84S
6HR MIN TEMP:  64; 6HR MAX TEMP:  69;

*LA GRANGE     PTSUNNY   76  67  73 S16G25    29.83F
6HR MIN TEMP:  69; 6HR MAX TEMP:  78;

*GIDDINGS      CLOUDY    75  64  68 S15G22    29.88F
6HR MIN TEMP:  65; 6HR MAX TEMP:  75;

*GONZALES      CLOUDY    74  68  82 S12G17    29.82F
6HR MIN TEMP:  63; 6HR MAX TEMP:  74;

$$

TXZ163>164-176>182-195>201-210>213-226-227-235-041900-
SOUTHEAST TEXAS

CITY           SKY/WX    TMP DP  RH WIND       PRES   REMARKS
COLLEGE STN    PTSUNNY   76  65  68 S16       29.86F
6HR MIN TEMP:  66; 6HR MAX TEMP:  76; 6HR PCP:  0.01;

*BRYAN         CLOUDY    75  66  73 S15G21    29.87F
6HR MIN TEMP:  64; 6HR MAX TEMP:  75;

*CALDWELL      PTSUNNY   73  66  78 S15G22    29.88F
*CROCKETT      FAIR      75  72  88 S10       29.90F
*BRENHAM       FAIR      78  67  68 S14G21    29.87S
6HR MIN TEMP:  70; 6HR MAX TEMP:  78;

HUNTSVILLE     PTSUNNY   76  66  71 S13G24    29.88F
6HR MIN TEMP:  68; 6HR MAX TEMP:  76; 6HR PCP: TRACE;

CONROE         CLOUDY    74  65  73 S14       29.90F
6HR MIN TEMP:  67; 6HR MAX TEMP:  74;

HOUSTON BUSH   CLOUDY    77  65  66 S13       29.89F
6HR MIN TEMP:  70; 6HR MAX TEMP:  77;

HOUSTON HOBBY  PTSUNNY   78  66  66 S13       29.88F
6HR MIN TEMP:  69; 6HR MAX TEMP:  78;

*HOUSTON SW AP CLOUDY    78  66  66 S13G18    29.89F
6HR MIN TEMP:  68; 6HR MAX TEMP:  78;

PEARLAND       CLOUDY    78  66  66 S12       29.90F
6HR MIN TEMP:  70; 6HR MAX TEMP:  78;

HOUSTON HOOKS  CLOUDY    77  65  66 S9G17     29.88F
6HR MIN TEMP:  70; 6HR MAX TEMP:  78;

ELLINGTON FLD  PTSUNNY   79  70  73 S14       29.91F
SUGAR LAND     CLOUDY    79  66  64 S18G25    29.87F
6HR MIN TEMP:  71; 6HR MAX TEMP:  79;

*HOUSTON EXEC  PTSUNNY   79  66  65 S15       29.88F
*CLEVELAND MUN   N/A     75  66  73 S7G17     29.91F
*WHARTON       FAIR      78  66  66 S18G26    29.87F
6HR MIN TEMP:  68; 6HR MAX TEMP:  78;

*COLUMBUS      CLOUDY    76  67  72 S13G18    29.86S
6HR MIN TEMP:  68; 6HR MAX TEMP:  77;

$$

TXZ214>216-236>238-041900-
THE UPPER TEXAS COAST

CITY           SKY/WX    TMP DP  RH WIND       PRES   REMARKS
*ORANGE        CLOUDY    76  69  77 S14       29.95F
6HR MIN TEMP:  67; 6HR MAX TEMP:  77;

PORT ARTHUR    CLOUDY    77  68  73 S10       29.93S
6HR MIN TEMP:  67; 6HR MAX TEMP:  79;

GALVESTON      FAIR      73  69  87 S12       29.92F
6HR MIN TEMP:  63; 6HR MAX TEMP:  74;

ANGLETON       FAIR      77  67  71 S21       29.88F
6HR MIN TEMP:  68; 6HR MAX TEMP:  78;

*BAY CITY      PTSUNNY   79  69  70 S15G21    29.88F
PALACIOS       FAIR      76  68  76 S15       29.87F
6HR MIN TEMP:  67; 6HR MAX TEMP:  76;

$$

TXZ229>234-239>247-041900-
TEXAS COASTAL BEND AND RIO GRANDE PLAINS

CITY           SKY/WX    TMP DP  RH WIND       PRES   REMARKS
VICTORIA       CLOUDY    74  68  81 S21       29.87S
6HR MIN TEMP:  68; 6HR MAX TEMP:  76;

*BEEVILLE      DRIZZLE   70  70 100 S15       29.84F
6HR MIN TEMP:  66; 6HR MAX TEMP:  71;

ROCKPORT       CLOUDY    75  68  78 S12G18    29.85F
6HR MIN TEMP:  66; 6HR MAX TEMP:  75;

*PORT ARANSAS  CLOUDY    71  67  89 SE14      29.86F
6HR MIN TEMP:  64; 6HR MAX TEMP:  71;

*PORT LAVACA   CLOUDY    76  67  76 S17G25    29.88R
6HR MIN TEMP:  67; 6HR MAX TEMP:  77;

*INGLESIDE     CLOUDY   N/A N/A N/A MISG      29.85F
CORPUS CHRISTI CLOUDY    73  68  84 S22       29.84F
6HR MIN TEMP:  67; 6HR MAX TEMP:  73;

CORPUS NAS     CLOUDY    72  68  87 S18       29.85F
6HR MIN TEMP:  65; 6HR MAX TEMP:  72;

*ROBSTOWN      CLOUDY    74  71  89 CALM      29.84F FOG
ALICE          CLOUDY    73  69  87 S7        29.82F
6HR MIN TEMP:  66; 6HR MAX TEMP:  73; 6HR PCP:  0.01;

KINGSVILLE NAS CLOUDY    75  71  87 S12       29.82F FOG
6HR MIN TEMP:  66; 6HR MAX TEMP:  75;

COTULLA        CLOUDY    68  63  84 S6        29.84R
6HR MIN TEMP:  63; 6HR MAX TEMP:  68;

*FAITH RANCH   CLOUDY    63  63 100 NW3       29.85S
LAREDO         CLOUDY    67  64  90 SW3       29.85F
6HR MIN TEMP:  60; 6HR MAX TEMP:  67; 6HR PCP: TRACE;

$$

TXZ248>255-041900-
DEEP SOUTH TEXAS

CITY           SKY/WX    TMP DP  RH WIND       PRES   REMARKS
BROWNSVILLE    CLOUDY    77  68  73 S24       29.83F
6HR MIN TEMP:  69; 6HR MAX TEMP:  77;

PORT ISABEL    CLOUDY    77  70  79 S20G25    29.83F
6HR MIN TEMP:  69; 6HR MAX TEMP:  77;

*SOUTH PADRE   PTSUNNY   68  68 100 S12       29.84F
HARLINGEN      CLOUDY    77  70  79 S18G29    29.82F
6HR MIN TEMP:  70; 6HR MAX TEMP:  77;

*HEBBRONVILLE  RAIN     N/A N/A N/A S7        29.84F
MCALLEN        CLOUDY    76  67  73 S9        29.83F



USA.gov is the U.S. government's official web portal to all federal, state and local government web resources and services.